Location: Budapest
(47.4979°N, 19.0402°E)
Time: 14:02:24
(UTC+02:00)

OTV 5 (USA 277) - Pass Details

Date: 11 October 2017
Orbit: 404 x 417 km, 43.0° (Epoch: 07 September)

Event Time Altitude Azimuth Distance (km) Brightness Sun altitude
Rises 20:18:41 0° 243° (WSW) 2,350 ? -23.5°
Reaches altitude 10° 20:20:55 10° 233° (SW) 1,488 ? -23.8°
Enters shadow 20:22:01 18° 221° (SW) 1,111 ? -24.0°
